Weather History for KMKN - May, 2014

Change the Weather History Date:

Thursday, May 15, 2014

  Actual Average (KSEP) Record (KSEP)
Temperature  
Mean Temperature 66 °F -  
Max Temperature 84 °F 82 °F 96 °F (1978)
Min Temperature 47 °F 60 °F 43 °F (1926)
Growing Degree Days 16 (Base 50)    
Moisture  
Dew Point 27 °F    
Average Humidity 27    
Maximum Humidity 65    
Minimum Humidity 9    
Precipitation  
Precipitation 0.00 in - - ()
Sea Level Pressure  
Sea Level Pressure 30.19 in    
Wind  
Wind Speed 5 mph (WSW)    
Max Wind Speed 17 mph    
Max Gust Speed 25 mph    
Visibility 10 miles    
Events      
Averages and records for this station are not official NWS values.
T = Trace of Precipitation, MM = Missing Value Source: NWS Daily Summary

Daily Weather History Graph

Daily Weather History Graph

Search for Another Location

Airport or City:

Trip Planner

Search our weather history database for the weather conditions in past years. The results will help you decide how hot, cold, wet, or windy it might be!

Date:

Astronomy

May. 15, 2014 Rise Set
Actual Time 6:37 AM CDT 8:24 PM CDT
Civil Twilight 6:10 AM CDT 8:51 PM CDT
Nautical Twilight 5:38 AM CDT 9:24 PM CDT
Astronomical Twilight 5:03 AM CDT 9:58 PM CDT
Moon 9:34 PM CDT (5/15) 7:24 AM CDT (5/15)
Length of Visible Light 14h 41m
Length of Day
13h 47m
Full, 99% of the Moon is Illuminated
May 15
Full
May 21
Last Quarter
May 28
New
Jun 5
First Quarter
Jun 12
Full

Hourly Weather History & Observations

Time (CDT) Temp. Dew Point Humidity Pressure Visibility Wind Dir Wind Speed Gust Speed Precip Events Conditions
12:15 AM 60.6 °F 27.0 °F 28% 30.26 in 10.0 mi West 3.5 mph - N/A   Clear
12:35 AM 60.4 °F 26.6 °F 28% 30.26 in 10.0 mi Calm Calm - N/A   Clear
12:55 AM 60.1 °F 26.8 °F 28% 30.26 in 10.0 mi West 3.5 mph - N/A   Clear
1:15 AM 59.5 °F 26.6 °F 28% 30.26 in 10.0 mi WNW 3.5 mph - N/A   Clear
1:35 AM 59.2 °F 26.4 °F 29% 30.26 in 10.0 mi NW 3.5 mph - N/A   Clear
1:55 AM 58.3 °F 26.2 °F 29% 30.26 in 10.0 mi Calm Calm - N/A   Clear
2:15 AM 57.4 °F 26.1 °F 30% 30.26 in 10.0 mi Calm Calm - N/A   Clear
2:35 AM 57.6 °F 25.3 °F 29% 30.26 in 10.0 mi Calm Calm - N/A   Clear
2:55 AM 57.9 °F 25.0 °F 28% 30.26 in 10.0 mi Calm Calm - N/A   Clear
3:15 AM 53.4 °F 27.9 °F 37% 30.26 in 10.0 mi Calm Calm - N/A   Clear
3:35 AM 48.4 °F 35.4 °F 61% 30.25 in 10.0 mi SSE 5.8 mph - N/A   Clear
3:55 AM 50.0 °F 32.7 °F 52% 30.25 in 10.0 mi South 3.5 mph - N/A   Clear
4:15 AM 50.5 °F 31.5 °F 48% 30.25 in 10.0 mi South 4.6 mph - N/A   Clear
4:35 AM 49.6 °F 31.6 °F 50% 30.25 in 10.0 mi SSW 4.6 mph - N/A   Clear
4:55 AM 49.1 °F 32.0 °F 52% 30.25 in 10.0 mi South 4.6 mph - N/A   Clear
5:15 AM 49.6 °F 32.0 °F 51% 30.24 in 10.0 mi Calm Calm - N/A   Clear
5:35 AM 50.2 °F 31.1 °F 48% 30.24 in 10.0 mi Calm Calm - N/A   Clear
5:55 AM 47.7 °F 34.3 °F 60% 30.25 in 10.0 mi Calm Calm - N/A   Clear
6:15 AM 47.3 °F 35.4 °F 63% 30.25 in 10.0 mi Calm Calm - N/A   Clear
6:35 AM 47.3 °F 32.9 °F 57% 30.26 in 10.0 mi Calm Calm - N/A   Clear
6:55 AM 47.1 °F 35.8 °F 65% 30.26 in 10.0 mi Calm Calm - N/A   Clear
7:15 AM 47.8 °F 32.7 °F 56% 30.27 in 10.0 mi Calm Calm - N/A   Clear
7:35 AM 48.7 °F 36.9 °F 64% 30.27 in 10.0 mi Calm Calm - N/A   Clear
7:55 AM 52.0 °F 37.9 °F 59% 30.27 in 10.0 mi Calm Calm - N/A   Clear
8:15 AM 57.6 °F 36.9 °F 46% 30.27 in 10.0 mi Calm Calm - N/A   Clear
8:35 AM 60.4 °F 32.9 °F 36% 30.27 in 10.0 mi WSW 6.9 mph - N/A   Clear
8:55 AM 62.6 °F 32.4 °F 32% 30.28 in 10.0 mi WSW 10.4 mph - N/A   Clear
9:15 AM 64.9 °F 32.0 °F 29% 30.27 in 10.0 mi WSW 8.1 mph - N/A   Clear
9:35 AM 66.9 °F 32.0 °F 27% 30.27 in 10.0 mi WSW 6.9 mph - N/A   Clear
9:55 AM 69.4 °F 30.6 °F 24% 30.27 in 10.0 mi SW 10.4 mph - N/A   Clear
10:15 AM 71.1 °F 30.0 °F 22% 30.27 in 10.0 mi SW 11.5 mph 16.1 mph N/A   Clear
10:35 AM 72.9 °F 29.5 °F 20% 30.27 in 10.0 mi WSW 9.2 mph - N/A   Clear
10:55 AM 73.6 °F 25.3 °F 17% 30.25 in 10.0 mi WSW 15.0 mph 21.9 mph N/A   Clear
11:15 AM 74.3 °F 24.4 °F 16% 30.25 in 10.0 mi WSW 17.3 mph 24.2 mph N/A   Clear
11:35 AM 75.6 °F 26.6 °F 16% 30.25 in 10.0 mi SW 17.3 mph 23.0 mph N/A   Clear
11:55 AM 76.1 °F 26.6 °F 16% 30.24 in 10.0 mi SW 12.7 mph 25.3 mph N/A   Clear
12:35 PM 77.7 °F 26.4 °F 15% 30.23 in 10.0 mi West 15.0 mph 19.6 mph N/A   Clear
12:55 PM 77.9 °F 23.5 °F 13% 30.22 in 10.0 mi West 12.7 mph 18.4 mph N/A   Clear
1:15 PM 78.6 °F 22.8 °F 13% 30.21 in 10.0 mi WNW 8.1 mph - N/A   Clear
2:15 PM 81.3 °F 22.3 °F 11% 30.18 in 10.0 mi WNW 9.2 mph 24.2 mph N/A   Clear
2:55 PM 81.5 °F 21.2 °F 11% 30.16 in 10.0 mi WNW 11.5 mph 18.4 mph N/A   Clear
3:15 PM 82.2 °F 23.0 °F 11% 30.16 in 10.0 mi West 10.4 mph - N/A   Clear
3:35 PM 82.6 °F 21.6 °F 11% 30.14 in 10.0 mi NW 11.5 mph 20.7 mph N/A   Clear
3:55 PM 83.5 °F 21.6 °F 10% 30.14 in 10.0 mi WNW 9.2 mph 17.3 mph N/A   Clear
4:15 PM 82.8 °F 20.7 °F 10% 30.12 in 10.0 mi NW 6.9 mph 17.3 mph N/A   Clear
4:35 PM 83.3 °F 21.0 °F 10% 30.11 in 10.0 mi WNW 9.2 mph 19.6 mph N/A   Clear
4:55 PM 83.3 °F 21.0 °F 10% 30.11 in 10.0 mi West 10.4 mph 18.4 mph N/A   Clear
5:15 PM 84.0 °F 21.4 °F 10% 30.10 in 10.0 mi WSW 9.2 mph - N/A   Clear
5:35 PM 83.3 °F 20.1 °F 10% 30.09 in 10.0 mi WNW 4.6 mph 18.4 mph N/A   Clear
5:55 PM 83.3 °F 19.6 °F 9% 30.09 in 10.0 mi WNW 10.4 mph - N/A   Clear
6:15 PM 83.3 °F 19.4 °F 9% 30.09 in 10.0 mi WNW 8.1 mph - N/A   Clear
6:35 PM 82.6 °F 19.0 °F 9% 30.08 in 10.0 mi WNW 6.9 mph 16.1 mph N/A   Clear
6:55 PM 81.9 °F 21.0 °F 11% 30.08 in 10.0 mi West 6.9 mph - N/A   Clear
7:15 PM 81.5 °F 21.0 °F 11% 30.08 in 10.0 mi West 3.5 mph - N/A   Clear
7:35 PM 80.6 °F 20.3 °F 11% 30.08 in 10.0 mi West 5.8 mph - N/A   Clear
7:55 PM 78.6 °F 22.5 °F 12% 30.08 in 10.0 mi SW 3.5 mph - N/A   Clear
8:15 PM 77.0 °F 24.3 °F 14% 30.08 in 10.0 mi SSW 4.6 mph - N/A   Clear
8:35 PM 73.8 °F 24.1 °F 16% 30.08 in 10.0 mi SW 5.8 mph - N/A   Clear
8:55 PM 72.0 °F 23.4 °F 16% 30.09 in 10.0 mi SW 5.8 mph - N/A   Clear
9:15 PM 70.9 °F 23.7 °F 17% 30.09 in 10.0 mi SSW 4.6 mph - N/A   Clear
9:35 PM 68.5 °F 25.9 °F 20% 30.09 in 10.0 mi SW 6.9 mph - N/A   Clear
9:55 PM 68.4 °F 25.7 °F 20% 30.09 in 10.0 mi SSW 5.8 mph - N/A   Clear
10:15 PM 63.1 °F 32.2 °F 31% 30.09 in 10.0 mi SSW 9.2 mph - N/A   Clear
10:35 PM 65.3 °F 29.1 °F 26% 30.09 in 10.0 mi SSW 10.4 mph - N/A   Clear
10:55 PM 66.6 °F 30.4 °F 26% 30.09 in 10.0 mi SSW 12.7 mph - N/A   Clear
11:15 PM 66.2 °F 31.1 °F 27% 30.08 in 10.0 mi SSW 10.4 mph - N/A   Clear
11:35 PM 65.5 °F 31.1 °F 28% 30.08 in 10.0 mi SSW 8.1 mph - N/A   Clear
11:55 PM 64.8 °F 30.7 °F 28% 30.08 in 10.0 mi SSW 9.2 mph - N/A   Clear